User: anonymous   Login
Location: St. Louis
(38.6270°N, 90.1994°W)
Time: 23:26:03
(UTC-06:00)
Language:

ZACube-1 - Orbit

View from above orbital plane
View from above orbital plane
View from above satellite
View from above satellite

Ground track
Ground track

The orbit data is extracted from the following two-line orbital elements,

1 39417U 13066B   22024.42359917  .00000606  00000-0  80926-4 0  9991
2 39417  97.6191   2.6405 0058923 155.4406 204.9634 14.81789029441790
Epoch (UTC): 24 January 2022 10:09:58
Eccentricity: 0.0058923
inclination: 97.6191°
perigee height: 582 km
apogee height: 665 km
right ascension of ascending node: 2.6405°
argument of perigee: 155.4406°
revolutions per day: 14.81789029
mean anomaly at epoch: 204.9634°
orbit number at epoch: 44179

The dashed part of the orbit path shows where the satellite is in the earth's shadow,  

DLR